Rush City, MN

1:44 PM CDT on July 25, 2016 (GMT -0500)
Rush City Regional

Weather History for KROS - October, 2013

Change the Weather History Date:

Friday, October 25, 2013

  Actual Average (KCBG) Record (KCBG)
Temperature  
Mean Temperature 40 °F -  
Max Temperature 52 °F 53 °F 80 °F (1989)
Min Temperature 29 °F 34 °F 17 °F (1981)
Degree Days  
Heating Degree Days 24    
Moisture  
Dew Point 33 °F    
Average Humidity 71    
Maximum Humidity 91    
Minimum Humidity 55    
Precipitation  
Precipitation 0.00 in - - ()
Sea Level Pressure  
Sea Level Pressure 30.03 in    
Wind  
Wind Speed 6 mph (SW)    
Max Wind Speed 18 mph    
Max Gust Speed 26 mph    
Visibility 10 miles    
Events      
Averages and records for this station are not official NWS values.
T = Trace of Precipitation, MM = Missing Value Source: NWS Daily Summary

Daily Weather History Graph

Daily Weather History Graph

Search for Another Location

Airport or City:

Trip Planner

Search our weather history database for the weather conditions in past years. The results will help you decide how hot, cold, wet, or windy it might be!

Date:

Astronomy

Oct. 25, 2013 Rise Set
Actual Time 7:42 AM CDT 6:08 PM CDT
Civil Twilight 7:11 AM CDT 6:39 PM CDT
Nautical Twilight 6:36 AM CDT 7:13 PM CDT
Astronomical Twilight 6:02 AM CDT 7:48 PM CDT
Moon 11:24 PM CDT 1:28 PM CDT
Length of Visible Light 11h 27m
Length of Day
10h 26m
Waning Gibbous, 62% of the Moon is Illuminated
Oct 25
Waning Gibbous
Oct 26
Last Quarter
Nov 3
New
Nov 9
First Quarter
Nov 17
Full

Hourly Weather History & Observations

Time (CDT) Temp. Windchill Dew Point Humidity Pressure Visibility Wind Dir Wind Speed Gust Speed Precip Events Conditions
12:15 AM 36.0 °F 32.1 °F 28.2 °F 73% 30.28 in 10.0 mi West 4.6 mph - N/A   Overcast
12:34 AM 35.8 °F 33.0 °F 28.4 °F 75% 30.28 in 10.0 mi West 3.5 mph - N/A   Overcast
12:55 AM 35.8 °F 31.9 °F 28.8 °F 76% 30.28 in 10.0 mi West 4.6 mph - N/A   Overcast
1:15 AM 36.0 °F 32.1 °F 28.9 °F 76% 30.28 in 10.0 mi West 4.6 mph - N/A   Overcast
1:34 AM 36.0 °F 32.1 °F 29.1 °F 76% 30.28 in 10.0 mi West 4.6 mph - N/A   Overcast
1:55 AM 35.8 °F 33.0 °F 29.3 °F 77% 30.28 in 10.0 mi West 3.5 mph - N/A   Overcast
2:15 AM 35.8 °F 33.0 °F 29.3 °F 77% 30.28 in 10.0 mi West 3.5 mph - N/A   Overcast
2:34 AM 35.8 °F 31.9 °F 29.3 °F 77% 30.28 in 10.0 mi West 4.6 mph - N/A   Overcast
2:55 AM 35.6 °F 32.8 °F 29.3 °F 78% 30.29 in 10.0 mi WSW 3.5 mph - N/A   Overcast
3:15 AM 35.6 °F - 29.3 °F 78% 30.28 in 10.0 mi Calm Calm - N/A   Overcast
3:34 AM 35.6 °F - 29.3 °F 78% 30.27 in 10.0 mi Calm Calm - N/A   Overcast
3:55 AM 35.1 °F - 29.3 °F 80% 30.27 in 10.0 mi Calm Calm - N/A   Overcast
4:15 AM 34.9 °F - 29.5 °F 81% 30.27 in 10.0 mi Calm Calm - N/A   Overcast
4:34 AM 34.9 °F - 29.7 °F 81% 30.27 in 10.0 mi Calm Calm - N/A   Overcast
4:55 AM 34.7 °F - 29.8 °F 82% 30.27 in 10.0 mi Calm Calm - N/A   Overcast
5:15 AM 34.5 °F - 30.0 °F 84% 30.27 in 10.0 mi Calm Calm - N/A   Overcast
5:34 AM 33.3 °F - 29.3 °F 85% 30.26 in 10.0 mi Calm Calm - N/A   Scattered Clouds
5:55 AM 32.4 °F - 29.1 °F 88% 30.26 in 10.0 mi Calm Calm - N/A   Clear
6:15 AM 32.0 °F - 28.9 °F 88% 30.26 in 10.0 mi Calm Calm - N/A   Clear
6:34 AM 31.6 °F - 28.4 °F 88% 30.26 in 10.0 mi Calm Calm - N/A   Clear
6:55 AM 31.1 °F - 28.4 °F 90% 30.26 in 10.0 mi Calm Calm - N/A   Clear
7:14 AM 31.1 °F - 28.4 °F 90% 30.25 in 10.0 mi Calm Calm - N/A   Clear
7:35 AM 30.2 °F 26.7 °F 27.5 °F 90% 30.24 in 10.0 mi SSW 3.5 mph - N/A   Clear
7:55 AM 30.2 °F - 27.5 °F 90% 30.23 in 10.0 mi Calm Calm - N/A   Clear
8:14 AM 29.7 °F 26.1 °F 27.3 °F 91% 30.23 in 10.0 mi South 3.5 mph - N/A   Clear
8:35 AM 30.9 °F 25.2 °F 28.4 °F 90% 30.23 in 10.0 mi SSW 5.8 mph - N/A   Clear
8:54 AM 32.0 °F 27.5 °F 29.1 °F 89% 30.21 in 10.0 mi South 4.6 mph - N/A   Clear
9:15 AM 33.3 °F 25.7 °F 29.3 °F 85% 30.21 in 10.0 mi South 9.2 mph - N/A   Clear
9:34 AM 34.2 °F 28.2 °F 29.1 °F 82% 30.20 in 10.0 mi SSW 6.9 mph - N/A   Clear
9:55 AM 35.6 °F 28.6 °F 28.6 °F 76% 30.19 in 10.0 mi SSW 9.2 mph - N/A   Clear
10:15 AM 36.3 °F 28.9 °F 27.9 °F 71% 30.18 in 10.0 mi SSW 10.4 mph - N/A   Clear
10:34 AM 37.0 °F 32.4 °F 27.7 °F 69% 30.17 in 10.0 mi South 5.8 mph 9.2 mph N/A   Clear
10:55 AM 37.8 °F 29.0 °F 27.5 °F 67% 30.15 in 10.0 mi SSW 15.0 mph 20.7 mph N/A   Clear
11:15 AM 38.7 °F 29.8 °F 27.5 °F 64% 30.13 in 10.0 mi SSW 16.1 mph 21.9 mph N/A   Clear
11:34 AM 40.3 °F 32.2 °F 28.2 °F 62% 30.11 in 10.0 mi SSW 15.0 mph - N/A   Clear
11:55 AM 41.4 °F 34.7 °F 28.6 °F 60% 30.09 in 10.0 mi SSW 11.5 mph 20.7 mph N/A   Clear
12:15 PM 41.9 °F 34.0 °F 29.1 °F 61% 30.07 in 10.0 mi SSW 16.1 mph 24.2 mph N/A   Clear
12:34 PM 42.3 °F 35.1 °F 28.9 °F 59% 30.06 in 10.0 mi South 13.8 mph 19.6 mph N/A   Clear
12:55 PM 42.8 °F 36.6 °F 29.1 °F 58% 30.03 in 10.0 mi South 11.5 mph 18.4 mph N/A   Scattered Clouds
1:15 PM 44.2 °F 37.6 °F 29.3 °F 56% 30.01 in 10.0 mi South 13.8 mph 19.6 mph N/A   Mostly Cloudy
1:34 PM 45.5 °F 38.6 °F 30.7 °F 56% 30.00 in 10.0 mi SSW 16.1 mph 20.7 mph N/A   Scattered Clouds
1:55 PM 45.9 °F 39.4 °F 31.8 °F 58% 29.97 in 10.0 mi SSW 15.0 mph 19.6 mph N/A   Scattered Clouds
2:15 PM 46.8 °F - 32.0 °F 57% 29.93 in 10.0 mi South 13.8 mph 20.7 mph N/A   Scattered Clouds
2:34 PM 47.5 °F - 32.5 °F 56% 29.92 in 10.0 mi SSW 12.7 mph 21.9 mph N/A   Clear
2:55 PM 47.7 °F - 33.3 °F 57% 29.91 in 10.0 mi SSW 10.4 mph 17.3 mph N/A   Clear
3:14 PM 48.2 °F - 33.8 °F 58% 29.89 in 10.0 mi SSW 12.7 mph 20.7 mph N/A   Clear
3:35 PM 48.7 °F - 34.3 °F 58% 29.86 in 10.0 mi SSW 17.3 mph 23.0 mph N/A   Clear
3:55 PM 48.9 °F - 34.9 °F 58% 29.84 in 10.0 mi SSW 18.4 mph 26.5 mph N/A   Clear
4:14 PM 49.3 °F - 34.9 °F 58% 29.82 in 10.0 mi SSW 16.1 mph 23.0 mph N/A   Clear
4:35 PM 50.9 °F - 35.2 °F 55% 29.80 in 10.0 mi SSW 16.1 mph 23.0 mph N/A   Clear
4:54 PM 51.3 °F - 35.6 °F 55% 29.78 in 10.0 mi SSW 13.8 mph 23.0 mph N/A   Clear
5:15 PM 51.3 °F - 36.0 °F 56% 29.77 in 10.0 mi SSW 9.2 mph 19.6 mph N/A   Clear
5:35 PM 51.6 °F - 36.5 °F 56% 29.76 in 10.0 mi SSW 8.1 mph 17.3 mph N/A   Clear
5:54 PM 51.1 °F - 36.7 °F 58% 29.75 in 10.0 mi SSW 9.2 mph 17.3 mph N/A   Clear
6:15 PM 50.7 °F - 37.0 °F 59% 29.74 in 10.0 mi SSW 6.9 mph - N/A   Clear
6:35 PM 51.8 °F - 37.8 °F 59% 29.74 in 10.0 mi SW 6.9 mph - N/A   Mostly Cloudy
6:55 PM 52.3 °F - 38.3 °F 59% 29.75 in 10.0 mi WSW 6.9 mph - N/A   Overcast
7:15 PM 51.8 °F - 38.7 °F 61% 29.74 in 10.0 mi SW 5.8 mph - N/A   Overcast
7:34 PM 51.8 °F - 39.2 °F 62% 29.73 in 10.0 mi SW 8.1 mph - N/A   Mostly Cloudy
7:55 PM 51.8 °F - 39.6 °F 63% 29.74 in 10.0 mi WSW 9.2 mph - N/A   Scattered Clouds
8:15 PM 52.2 °F - 40.3 °F 64% 29.74 in 10.0 mi WSW 9.2 mph - N/A   Scattered Clouds
8:34 PM 52.0 °F - 40.6 °F 65% 29.74 in 10.0 mi WSW 8.1 mph - N/A   Scattered Clouds
8:55 PM 50.9 °F - 40.8 °F 68% 29.75 in 10.0 mi West 6.9 mph - N/A   Scattered Clouds
9:15 PM 50.7 °F - 40.8 °F 69% 29.75 in 10.0 mi West 9.2 mph - N/A   Scattered Clouds
9:34 PM 50.9 °F - 39.9 °F 66% 29.75 in 10.0 mi West 5.8 mph - N/A   Scattered Clouds
9:55 PM 50.0 °F - 39.4 °F 67% 29.74 in 10.0 mi WSW 6.9 mph - N/A   Clear
10:15 PM 50.0 °F - 39.7 °F 68% 29.74 in 10.0 mi WSW 5.8 mph - N/A   Scattered Clouds
10:34 PM 49.1 °F - 40.1 °F 71% 29.74 in 10.0 mi WSW 6.9 mph - N/A   Scattered Clouds
10:55 PM 49.1 °F - 40.5 °F 72% 29.75 in 10.0 mi West 6.9 mph - N/A   Scattered Clouds
11:15 PM 48.4 °F - 40.1 °F 73% 29.74 in 10.0 mi West 6.9 mph - N/A   Scattered Clouds
11:34 PM 48.9 °F - 39.9 °F 71% 29.74 in 10.0 mi West 8.1 mph - N/A   Mostly Cloudy
11:55 PM 48.4 °F - 38.7 °F 69% 29.75 in 10.0 mi WNW 5.8 mph - N/A   Mostly Cloudy